Time,TemperatureF,DewpointF,PressureIn,WindDirection,WindDirectionDegrees,WindSpeedMPH,WindSpeedGustMPH,Humidity,HourlyPrecipIn,Conditions,Clouds,dailyrainin,SoftwareType,DateUTC
2013-01-25 00:02:00,36.3,17.5,29.38,NNW,338,3.7,5.8,46,0.00,,,0.00,WSDL version 426,2013-01-25 06:02:00,
2013-01-25 00:07:00,36.3,17.7,29.38,NNW,329,4.6,5.8,47,0.00,,,0.00,WSDL version 426,2013-01-25 06:07:00,
2013-01-25 00:12:00,36.2,17.9,29.38,NW,315,5.8,6.5,47,0.00,,,0.00,WSDL version 426,2013-01-25 06:12:00,
2013-01-25 00:17:00,36.1,17.9,29.38,NNW,341,5.5,6.5,47,0.00,,,0.00,WSDL version 426,2013-01-25 06:17:00,
2013-01-25 00:22:00,36.1,17.9,29.38,NNW,335,4.5,6.5,47,0.00,,,0.00,WSDL version 426,2013-01-25 06:22:00,
2013-01-25 00:27:00,36.1,17.9,29.38,NW,312,4.8,7.4,47,0.00,,,0.00,WSDL version 426,2013-01-25 06:27:00,
2013-01-25 00:32:00,36.1,17.9,29.38,NNW,330,4.5,7.4,47,0.00,,,0.00,WSDL version 426,2013-01-25 06:32:00,
2013-01-25 00:37:00,36.1,17.9,29.38,NW,326,4.1,6.5,47,0.00,,,0.00,WSDL version 426,2013-01-25 06:37:00,
2013-01-25 00:42:00,36.1,18.1,29.38,NNW,338,3.3,6.0,47,0.00,,,0.00,WSDL version 426,2013-01-25 06:42:00,
2013-01-25 00:47:00,36.1,17.9,29.38,NNW,328,3.0,6.0,47,0.00,,,0.00,WSDL version 426,2013-01-25 06:47:00,
2013-01-25 00:52:00,36.1,17.9,29.38,North,357,2.2,4.3,47,0.00,,,0.00,WSDL version 426,2013-01-25 06:52:00,
2013-01-25 00:57:00,36.1,18.2,29.38,NNE,23,2.2,4.3,48,0.00,,,0.00,WSDL version 426,2013-01-25 06:57:00,
2013-01-25 01:02:00,36.2,18.4,29.38,NNE,23,0.0,4.0,48,0.00,,,0.00,WSDL version 426,2013-01-25 07:02:00,
2013-01-25 01:07:00,36.3,18.5,29.38,NNE,23,2.6,3.6,48,0.00,,,0.00,WSDL version 426,2013-01-25 07:07:00,
2013-01-25 01:12:00,36.3,18.5,29.38,NNE,30,1.4,3.6,48,0.00,,,0.00,WSDL version 426,2013-01-25 07:12:00,
2013-01-25 01:17:00,36.5,18.6,29.38,NE,45,0.6,2.5,48,0.00,,,0.00,WSDL version 426,2013-01-25 07:17:00,
2013-01-25 01:22:00,36.5,18.7,29.38,NNE,23,1.3,3.1,48,0.00,,,0.00,WSDL version 426,2013-01-25 07:22:00,
2013-01-25 01:27:00,36.5,18.8,29.38,NNW,345,2.6,3.4,49,0.00,,,0.00,WSDL version 426,2013-01-25 07:27:00,
2013-01-25 01:32:00,36.5,19.2,29.38,NW,323,4.1,6.5,49,0.00,,,0.00,WSDL version 426,2013-01-25 07:32:00,
2013-01-25 01:37:00,36.5,19.2,29.38,NW,312,3.6,7.8,49,0.00,,,0.00,WSDL version 426,2013-01-25 07:37:00,
2013-01-25 01:42:00,36.3,19.0,29.35,NW,320,3.5,7.8,49,0.00,,,0.00,WSDL version 426,2013-01-25 07:42:00,
2013-01-25 01:47:00,36.3,19.0,29.35,NNW,340,3.4,5.6,49,0.00,,,0.00,WSDL version 426,2013-01-25 07:47:00,
2013-01-25 01:52:00,36.3,19.0,29.35,NNW,335,3.1,4.3,49,0.00,,,0.00,WSDL version 426,2013-01-25 07:52:00,
2013-01-25 01:57:00,36.3,19.0,29.35,NNW,333,3.0,5.4,49,0.00,,,0.00,WSDL version 426,2013-01-25 07:57:00,
2013-01-25 02:02:00,36.3,19.0,29.35,NNW,335,3.4,5.4,49,0.00,,,0.00,WSDL version 426,2013-01-25 08:02:00,
2013-01-25 02:07:00,36.3,18.9,29.35,WNW,301,4.6,6.0,49,0.00,,,0.00,WSDL version 426,2013-01-25 08:07:00,
2013-01-25 02:12:00,36.1,18.8,29.38,WNW,298,4.2,6.0,49,0.00,,,0.00,WSDL version 426,2013-01-25 08:12:00,
2013-01-25 02:17:00,36.1,18.8,29.38,WNW,290,2.7,6.0,49,0.00,,,0.00,WSDL version 426,2013-01-25 08:17:00,
2013-01-25 02:22:00,36.1,18.7,29.38,NW,309,5.2,7.6,49,0.00,,,0.00,WSDL version 426,2013-01-25 08:22:00,
2013-01-25 02:27:00,36.0,18.7,29.35,WNW,285,3.8,7.6,49,0.00,,,0.00,WSDL version 426,2013-01-25 08:27:00,
2013-01-25 02:32:00,36.0,18.7,29.35,WNW,283,3.0,4.3,49,0.00,,,0.00,WSDL version 426,2013-01-25 08:32:00,
2013-01-25 02:37:00,36.0,18.7,29.35,WNW,295,3.7,4.7,49,0.00,,,0.00,WSDL version 426,2013-01-25 08:37:00,
2013-01-25 02:42:00,36.0,18.7,29.35,WNW,303,2.5,4.7,49,0.00,,,0.00,WSDL version 426,2013-01-25 08:42:00,
2013-01-25 02:47:00,36.0,18.7,29.35,West,262,1.3,3.8,49,0.00,,,0.00,WSDL version 426,2013-01-25 08:47:00,
2013-01-25 02:52:00,36.0,18.7,29.35,SW,225,0.6,2.9,49,0.00,,,0.00,WSDL version 426,2013-01-25 08:52:00,
2013-01-25 02:57:00,36.0,18.7,29.35,West,280,3.1,4.9,49,0.00,,,0.00,WSDL version 426,2013-01-25 08:57:00,
2013-01-25 03:02:00,36.0,18.7,29.35,NW,315,2.8,4.9,49,0.00,,,0.00,WSDL version 426,2013-01-25 09:02:00,
2013-01-25 03:07:00,36.0,19.2,29.35,NW,312,5.9,6.5,50,0.00,,,0.00,WSDL version 426,2013-01-25 09:07:00,
2013-01-25 03:12:00,36.0,19.1,29.38,NNW,338,4.2,7.6,50,0.00,,,0.00,WSDL version 426,2013-01-25 09:12:00,
2013-01-25 03:17:00,36.0,19.1,29.38,NW,308,4.1,7.6,50,0.00,,,0.00,WSDL version 426,2013-01-25 09:17:00,
2013-01-25 03:22:00,35.8,19.0,29.38,NNW,332,6.4,8.5,50,0.00,,,0.00,WSDL version 426,2013-01-25 09:22:00,
2013-01-25 03:27:00,35.8,19.4,29.38,NNW,330,5.1,8.5,51,0.00,,,0.00,WSDL version 426,2013-01-25 09:27:00,
2013-01-25 03:32:00,35.8,19.4,29.38,NW,304,6.3,10.7,51,0.00,,,0.00,WSDL version 426,2013-01-25 09:32:00,
2013-01-25 03:37:00,35.7,19.3,29.38,NW,308,6.9,10.7,51,0.00,,,0.00,WSDL version 426,2013-01-25 09:37:00,
2013-01-25 03:43:00,35.6,19.3,29.38,NW,309,8.1,10.1,52,0.00,,,0.00,WSDL version 426,2013-01-25 09:43:00,
2013-01-25 03:49:00,35.3,19.5,29.38,WNW,300,6.5,9.8,52,0.00,,,0.00,WSDL version 426,2013-01-25 09:49:00,
2013-01-25 03:54:00,35.2,19.3,29.38,NNW,330,6.2,8.9,52,0.00,,,0.00,WSDL version 426,2013-01-25 09:54:00,
2013-01-25 03:59:00,35.1,19.2,29.38,NNW,340,4.8,7.6,52,0.00,,,0.00,WSDL version 426,2013-01-25 09:59:00,
2013-01-25 04:04:00,35.1,19.2,29.38,NNW,332,4.2,7.2,52,0.00,,,0.00,WSDL version 426,2013-01-25 10:04:00,
2013-01-25 04:10:00,35.1,19.7,29.38,NNW,335,3.8,6.5,53,0.00,,,0.00,WSDL version 426,2013-01-25 10:10:00,
2013-01-25 04:15:00,35.1,19.7,29.38,NNW,343,3.5,6.5,53,0.00,,,0.00,WSDL version 426,2013-01-25 10:15:00,
2013-01-25 04:20:00,35.1,19.7,29.38,NNW,338,4.5,5.6,53,0.00,,,0.00,WSDL version 426,2013-01-25 10:20:00,
2013-01-25 04:25:00,35.1,19.8,29.38,NNW,340,5.8,6.5,54,0.00,,,0.00,WSDL version 426,2013-01-25 10:25:00,
2013-01-25 04:30:00,34.9,19.5,29.38,NNW,328,4.3,6.5,53,0.00,,,0.00,WSDL version 426,2013-01-25 10:30:00,
2013-01-25 04:36:00,34.9,19.5,29.38,NNW,332,4.5,6.5,53,0.00,,,0.00,WSDL version 426,2013-01-25 10:36:00,
2013-01-25 04:41:00,34.7,19.4,29.38,NW,310,3.1,6.5,53,0.00,,,0.00,WSDL version 426,2013-01-25 10:41:00,
2013-01-25 04:46:00,34.6,19.2,29.38,NNW,338,5.3,6.5,53,0.00,,,0.00,WSDL version 426,2013-01-25 10:46:00,
2013-01-25 04:51:00,34.4,19.0,29.38,NNW,340,5.4,7.6,53,0.00,,,0.00,WSDL version 426,2013-01-25 10:51:00,
2013-01-25 04:56:00,34.1,19.1,29.41,NW,318,5.9,7.6,54,0.00,,,0.00,WSDL version 426,2013-01-25 10:56:00,
2013-01-25 05:01:00,33.7,18.9,29.41,NW,318,6.3,8.7,55,0.00,,,0.00,WSDL version 426,2013-01-25 11:01:00,
2013-01-25 05:06:00,33.3,18.9,29.41,NW,323,6.6,8.7,55,0.00,,,0.00,WSDL version 426,2013-01-25 11:06:00,
2013-01-25 05:11:00,33.0,18.9,29.41,NNW,328,6.7,9.8,56,0.00,,,0.00,WSDL version 426,2013-01-25 11:11:00,
2013-01-25 05:16:00,32.8,19.0,29.41,NNW,335,6.4,9.8,57,0.00,,,0.00,WSDL version 426,2013-01-25 11:16:00,
2013-01-25 05:21:00,32.6,19.0,29.41,NW,326,5.1,8.7,57,0.00,,,0.00,WSDL version 426,2013-01-25 11:21:00,
2013-01-25 05:26:00,32.4,19.2,29.41,NW,323,5.5,8.7,58,0.00,,,0.00,WSDL version 426,2013-01-25 11:26:00,
2013-01-25 05:31:00,32.2,19.1,29.41,NNW,332,4.7,7.8,58,0.00,,,0.00,WSDL version 426,2013-01-25 11:31:00,
2013-01-25 05:36:00,32.0,20.0,29.41,NW,315,3.9,7.2,58,0.00,,,0.00,WSDL version 426,2013-01-25 11:36:00,
2013-01-25 05:41:00,31.9,20.3,29.41,NW,325,3.4,5.8,58,0.00,,,0.00,WSDL version 426,2013-01-25 11:41:00,
2013-01-25 05:46:00,31.7,20.3,29.41,NW,321,3.1,6.0,58,0.00,,,0.00,WSDL version 426,2013-01-25 11:46:00,
2013-01-25 05:51:00,31.6,20.0,29.41,West,280,3.4,6.0,58,0.00,,,0.00,WSDL version 426,2013-01-25 11:51:00,
2013-01-25 05:57:00,31.4,19.8,29.44,WNW,283,3.4,4.9,58,0.00,,,0.00,WSDL version 426,2013-01-25 11:57:00,
2013-01-25 06:02:00,31.1,19.7,29.44,WNW,295,3.9,4.9,59,0.00,,,0.00,WSDL version 426,2013-01-25 12:02:00,
2013-01-25 06:07:00,31.1,19.9,29.44,WNW,284,3.1,4.7,59,0.00,,,0.00,WSDL version 426,2013-01-25 12:07:00,
2013-01-25 06:12:00,31.0,19.8,29.44,NW,305,3.3,5.4,59,0.00,,,0.00,WSDL version 426,2013-01-25 12:12:00,
2013-01-25 06:17:00,31.1,20.3,29.44,NW,304,3.6,6.0,60,0.00,,,0.00,WSDL version 426,2013-01-25 12:17:00,
2013-01-25 06:22:00,31.1,20.2,29.44,NW,313,3.6,6.0,60,0.00,,,0.00,WSDL version 426,2013-01-25 12:22:00,
2013-01-25 06:27:00,31.1,20.5,29.44,WNW,298,4.6,6.0,61,0.00,,,0.00,WSDL version 426,2013-01-25 12:27:00,
2013-01-25 06:32:00,31.2,21.2,29.44,NW,310,5.4,7.8,63,0.00,,,0.00,WSDL version 426,2013-01-25 12:32:00,
2013-01-25 06:37:00,31.5,21.6,29.44,NW,305,6.0,8.5,63,0.00,,,0.00,WSDL version 426,2013-01-25 12:37:00,
2013-01-25 06:42:00,31.8,21.9,29.44,NW,323,5.7,8.5,63,0.00,,,0.00,WSDL version 426,2013-01-25 12:42:00,
2013-01-25 06:47:00,32.0,22.1,29.44,NW,318,4.3,8.1,63,0.00,,,0.00,WSDL version 426,2013-01-25 12:47:00,
2013-01-25 06:52:00,32.1,21.4,29.44,NNW,335,5.0,8.1,63,0.00,,,0.00,WSDL version 426,2013-01-25 12:52:00,
2013-01-25 06:57:00,32.2,20.9,29.44,NNW,334,5.3,8.1,63,0.00,,,0.00,WSDL version 426,2013-01-25 12:57:00,
2013-01-25 07:02:00,32.3,20.8,29.44,NNW,332,4.9,7.6,62,0.00,,,0.00,WSDL version 426,2013-01-25 13:02:00,
2013-01-25 07:07:00,32.4,20.8,29.44,NNW,328,4.6,7.8,62,0.00,,,0.00,WSDL version 426,2013-01-25 13:07:00,
2013-01-25 07:12:00,32.5,20.9,29.44,NW,315,4.4,7.8,62,0.00,,,0.00,WSDL version 426,2013-01-25 13:12:00,
2013-01-25 07:17:00,32.5,20.6,29.44,NNW,341,4.0,6.3,61,0.00,,,0.00,WSDL version 426,2013-01-25 13:17:00,
2013-01-25 07:22:00,32.5,20.6,29.44,NNW,338,5.3,7.6,61,0.00,,,0.00,WSDL version 426,2013-01-25 13:22:00,
2013-01-25 07:27:00,32.6,20.7,29.44,NNW,334,4.4,7.6,61,0.00,,,0.00,WSDL version 426,2013-01-25 13:27:00,
2013-01-25 07:32:00,32.7,20.5,29.44,NNW,343,4.0,6.5,60,0.00,,,0.00,WSDL version 426,2013-01-25 13:32:00,
2013-01-25 07:37:00,32.7,20.4,29.44,NNW,338,5.2,6.5,60,0.00,,,0.00,WSDL version 426,2013-01-25 13:37:00,
2013-01-25 07:42:00,32.9,20.5,29.44,NNW,333,4.3,6.5,59,0.00,,,0.00,WSDL version 426,2013-01-25 13:42:00,
2013-01-25 07:47:00,33.1,20.3,29.44,NNW,330,3.3,6.0,59,0.00,,,0.00,WSDL version 426,2013-01-25 13:47:00,
2013-01-25 07:52:00,33.1,20.1,29.44,NNW,344,2.9,6.0,58,0.00,,,0.00,WSDL version 426,2013-01-25 13:52:00,
2013-01-25 07:57:00,33.3,20.1,29.47,NW,323,2.9,4.3,58,0.00,,,0.00,WSDL version 426,2013-01-25 13:57:00,
2013-01-25 08:02:00,33.3,19.9,29.47,NNW,338,4.0,5.6,57,0.00,,,0.00,WSDL version 426,2013-01-25 14:02:00,
2013-01-25 08:07:00,33.4,19.7,29.47,NW,305,6.0,7.4,56,0.00,,,0.00,WSDL version 426,2013-01-25 14:07:00,
2013-01-25 08:12:00,33.4,19.3,29.47,NW,315,5.8,7.4,55,0.00,,,0.00,WSDL version 426,2013-01-25 14:12:00,
2013-01-25 08:17:00,33.6,19.1,29.47,NW,308,3.9,7.4,55,0.00,,,0.00,WSDL version 426,2013-01-25 14:17:00,
2013-01-25 08:22:00,33.6,19.0,29.47,NNW,328,6.0,7.4,54,0.00,,,0.00,WSDL version 426,2013-01-25 14:22:00,
2013-01-25 08:27:00,33.7,18.8,29.47,NW,312,4.8,7.4,54,0.00,,,0.00,WSDL version 426,2013-01-25 14:27:00,
2013-01-25 08:32:00,33.8,19.0,29.47,NNW,329,3.6,6.3,54,0.00,,,0.00,WSDL version 426,2013-01-25 14:32:00,
2013-01-25 08:37:00,34.0,18.9,29.47,NNW,333,4.6,6.5,53,0.00,,,0.00,WSDL version 426,2013-01-25 14:37:00,
2013-01-25 08:42:00,34.0,18.7,29.47,NNW,333,3.4,6.5,53,0.00,,,0.00,WSDL version 426,2013-01-25 14:42:00,
2013-01-25 08:47:00,34.3,18.9,29.47,NNW,335,4.9,6.9,53,0.00,,,0.00,WSDL version 426,2013-01-25 14:47:00,
2013-01-25 08:52:00,34.4,19.0,29.47,NNW,332,3.2,6.9,53,0.00,,,0.00,WSDL version 426,2013-01-25 14:52:00,
2013-01-25 08:57:00,34.5,18.9,29.47,NNW,338,4.6,8.1,52,0.00,,,0.00,WSDL version 426,2013-01-25 14:57:00,
2013-01-25 09:02:00,34.8,19.2,29.47,NNW,338,4.0,8.1,53,0.00,,,0.00,WSDL version 426,2013-01-25 15:02:00,
2013-01-25 09:07:00,35.0,19.6,29.47,NNW,332,4.5,6.3,53,0.00,,,0.00,WSDL version 426,2013-01-25 15:07:00,
2013-01-25 09:12:00,35.2,19.5,29.47,NW,323,4.9,7.4,52,0.00,,,0.00,WSDL version 426,2013-01-25 15:12:00,
2013-01-25 09:17:00,35.2,19.4,29.47,NW,312,4.7,7.4,53,0.00,,,0.00,WSDL version 426,2013-01-25 15:17:00,
2013-01-25 09:22:00,35.4,19.6,29.47,NW,307,4.6,7.6,53,0.00,,,0.00,WSDL version 426,2013-01-25 15:22:00,
2013-01-25 09:27:00,35.5,19.9,29.47,NW,310,5.2,7.6,52,0.00,,,0.00,WSDL version 426,2013-01-25 15:27:00,
2013-01-25 09:32:00,35.6,19.7,29.47,NW,310,6.2,7.8,52,0.00,,,0.00,WSDL version 426,2013-01-25 15:32:00,
2013-01-25 09:37:00,35.7,20.0,29.47,NW,326,4.8,7.8,52,0.00,,,0.00,WSDL version 426,2013-01-25 15:37:00,
2013-01-25 09:42:00,35.8,19.9,29.50,NNW,328,4.3,6.5,52,0.00,,,0.00,WSDL version 426,2013-01-25 15:42:00,
2013-01-25 09:47:00,36.2,20.4,29.50,NNW,343,3.9,6.5,53,0.00,,,0.00,WSDL version 426,2013-01-25 15:47:00,
2013-01-25 09:52:00,36.5,20.7,29.50,NNW,340,4.2,6.3,52,0.00,,,0.00,WSDL version 426,2013-01-25 15:52:00,
2013-01-25 09:57:00,36.7,20.8,29.50,NNW,332,4.2,6.3,52,0.00,,,0.00,WSDL version 426,2013-01-25 15:57:00,
2013-01-25 10:02:00,36.8,20.8,29.50,NW,325,4.3,6.7,52,0.00,,,0.00,WSDL version 426,2013-01-25 16:02:00,
2013-01-25 10:07:00,36.8,20.5,29.50,North,355,4.3,6.7,52,0.00,,,0.00,WSDL version 426,2013-01-25 16:07:00,
2013-01-25 10:12:00,37.1,21.0,29.50,NW,307,5.2,6.5,51,0.00,,,0.00,WSDL version 426,2013-01-25 16:12:00,
2013-01-25 10:17:00,37.2,20.7,29.50,NNW,330,4.7,6.5,51,0.00,,,0.00,WSDL version 426,2013-01-25 16:17:00,
2013-01-25 10:22:00,37.4,20.9,29.50,NW,320,5.4,7.2,51,0.00,,,0.00,WSDL version 426,2013-01-25 16:22:00,
2013-01-25 10:27:00,37.6,21.0,29.50,NNW,328,5.2,8.5,51,0.00,,,0.00,WSDL version 426,2013-01-25 16:27:00,
2013-01-25 10:32:00,37.9,21.3,29.50,North,8,4.4,8.5,51,0.00,,,0.00,WSDL version 426,2013-01-25 16:32:00,
2013-01-25 10:37:00,38.2,21.5,29.50,NNW,348,4.7,7.8,50,0.00,,,0.00,WSDL version 426,2013-01-25 16:37:00,
2013-01-25 10:42:00,38.8,22.2,29.50,NNE,23,3.9,6.9,50,0.00,,,0.00,WSDL version 426,2013-01-25 16:42:00,
2013-01-25 10:47:00,38.9,21.6,29.50,NW,312,4.9,7.6,49,0.00,,,0.00,WSDL version 426,2013-01-25 16:47:00,
2013-01-25 10:52:00,39.0,21.6,29.50,NNW,340,5.9,8.5,50,0.00,,,0.00,WSDL version 426,2013-01-25 16:52:00,
2013-01-25 10:57:00,39.0,21.9,29.50,North,6,3.6,8.5,50,0.00,,,0.00,WSDL version 426,2013-01-25 16:57:00,
2013-01-25 11:02:00,39.3,21.9,29.50,North,3,3.9,7.6,50,0.00,,,0.00,WSDL version 426,2013-01-25 17:02:00,
2013-01-25 11:07:00,39.7,22.2,29.50,NW,312,3.6,6.7,49,0.00,,,0.00,WSDL version 426,2013-01-25 17:07:00,
2013-01-25 11:12:00,39.9,22.0,29.50,NW,315,4.8,7.4,48,0.00,,,0.00,WSDL version 426,2013-01-25 17:12:00,
2013-01-25 11:17:00,40.0,22.3,29.50,North,360,4.2,7.6,49,0.00,,,0.00,WSDL version 426,2013-01-25 17:17:00,
2013-01-25 11:22:00,40.5,22.8,29.50,NNW,340,6.0,7.6,49,0.00,,,0.00,WSDL version 426,2013-01-25 17:22:00,
2013-01-25 11:27:00,40.9,22.8,29.50,North,350,4.4,7.4,48,0.00,,,0.00,WSDL version 426,2013-01-25 17:27:00,
2013-01-25 11:32:00,41.1,22.9,29.50,NNE,15,2.3,6.0,48,0.00,,,0.00,WSDL version 426,2013-01-25 17:32:00,
2013-01-25 11:37:00,42.0,23.6,29.50,WNW,300,3.3,6.0,47,0.00,,,0.00,WSDL version 426,2013-01-25 17:37:00,
2013-01-25 11:42:00,42.3,23.2,29.50,NW,309,2.0,6.0,47,0.00,,,0.00,WSDL version 426,2013-01-25 17:42:00,
2013-01-25 11:47:00,43.2,24.0,29.50,NNW,345,1.7,5.8,46,0.00,,,0.00,WSDL version 426,2013-01-25 17:47:00,
2013-01-25 11:52:00,43.4,24.0,29.50,North,8,4.7,6.5,46,0.00,,,0.00,WSDL version 426,2013-01-25 17:52:00,
2013-01-25 11:57:00,43.7,24.0,29.47,NNE,13,4.6,6.5,45,0.00,,,0.00,WSDL version 426,2013-01-25 17:57:00,
2013-01-25 12:02:00,44.2,24.3,29.47,North,353,3.9,6.3,45,0.00,,,0.00,WSDL version 426,2013-01-25 18:02:00,
2013-01-25 12:07:00,44.3,23.7,29.47,North,354,3.7,6.5,44,0.00,,,0.00,WSDL version 426,2013-01-25 18:07:00,
2013-01-25 12:12:00,44.3,23.8,29.47,North,360,5.1,8.7,44,0.00,,,0.00,WSDL version 426,2013-01-25 18:12:00,
2013-01-25 12:17:00,44.2,23.7,29.47,NW,320,5.3,8.7,44,0.00,,,0.00,WSDL version 426,2013-01-25 18:17:00,
2013-01-25 12:22:00,44.7,24.1,29.47,NNE,25,4.8,8.7,44,0.00,,,0.00,WSDL version 426,2013-01-25 18:22:00,
2013-01-25 12:27:00,45.4,24.8,29.47,North,349,4.3,7.4,44,0.00,,,0.00,WSDL version 426,2013-01-25 18:27:00,
2013-01-25 12:32:00,45.7,25.1,29.47,NW,313,3.2,7.4,44,0.00,,,0.00,WSDL version 426,2013-01-25 18:32:00,
2013-01-25 12:37:00,46.0,25.4,29.47,North,355,5.0,8.7,44,0.00,,,0.00,WSDL version 426,2013-01-25 18:37:00,
2013-01-25 12:42:00,46.4,25.2,29.47,North,11,5.3,8.7,43,0.00,,,0.00,WSDL version 426,2013-01-25 18:42:00,
2013-01-25 12:47:00,46.2,25.0,29.47,North,352,4.6,7.8,43,0.00,,,0.00,WSDL version 426,2013-01-25 18:47:00,
2013-01-25 12:52:00,46.1,24.9,29.47,NW,312,7.4,8.7,43,0.00,,,0.00,WSDL version 426,2013-01-25 18:52:00,
2013-01-25 12:57:00,46.0,25.0,29.47,North,357,4.1,8.7,43,0.00,,,0.00,WSDL version 426,2013-01-25 18:57:00,
2013-01-25 13:02:00,47.0,25.7,29.47,NE,38,3.3,8.1,43,0.00,,,0.00,WSDL version 426,2013-01-25 19:02:00,
2013-01-25 13:07:00,47.9,26.3,29.47,North,352,3.3,6.5,42,0.00,,,0.00,WSDL version 426,2013-01-25 19:07:00,
2013-01-25 13:12:00,48.0,25.9,29.47,NNE,14,4.5,6.5,42,0.00,,,0.00,WSDL version 426,2013-01-25 19:12:00,
2013-01-25 13:17:00,48.5,25.9,29.47,NNW,335,5.4,7.4,41,0.00,,,0.00,WSDL version 426,2013-01-25 19:17:00,
2013-01-25 13:22:00,48.6,25.8,29.47,NNW,340,7.2,10.1,40,0.00,,,0.00,WSDL version 426,2013-01-25 19:22:00,
2013-01-25 13:27:00,49.0,26.0,29.47,NNE,31,4.4,10.1,41,0.00,,,0.00,WSDL version 426,2013-01-25 19:27:00,
2013-01-25 13:32:00,49.7,26.3,29.47,WNW,300,5.0,7.4,39,0.00,,,0.00,WSDL version 426,2013-01-25 19:32:00,
2013-01-25 13:37:00,49.6,25.7,29.47,NNE,23,5.0,7.8,39,0.00,,,0.00,WSDL version 426,2013-01-25 19:37:00,
2013-01-25 13:42:00,50.2,26.2,29.47,NNE,33,4.1,8.1,39,0.00,,,0.00,WSDL version 426,2013-01-25 19:42:00,
2013-01-25 13:47:00,51.0,26.5,29.47,North,358,5.3,8.1,38,0.00,,,0.00,WSDL version 426,2013-01-25 19:47:00,
2013-01-25 13:52:00,51.5,26.7,29.47,NE,39,4.6,8.5,38,0.00,,,0.00,WSDL version 426,2013-01-25 19:52:00,
2013-01-25 13:57:00,52.2,27.3,29.44,NE,48,4.6,8.5,38,0.00,,,0.00,WSDL version 426,2013-01-25 19:57:00,
2013-01-25 14:02:00,52.8,27.3,29.44,North,6,4.8,7.4,37,0.00,,,0.00,WSDL version 426,2013-01-25 20:02:00,
2013-01-25 14:07:00,52.5,27.0,29.44,NNW,348,5.2,8.7,37,0.00,,,0.00,WSDL version 426,2013-01-25 20:07:00,
2013-01-25 14:12:00,52.7,27.0,29.44,NNE,25,4.6,8.7,36,0.00,,,0.00,WSDL version 426,2013-01-25 20:12:00,
2013-01-25 14:17:00,52.7,26.5,29.44,North,10,4.1,8.5,36,0.00,,,0.00,WSDL version 426,2013-01-25 20:17:00,
2013-01-25 14:22:00,53.4,27.1,29.44,NNW,343,4.4,7.6,36,0.00,,,0.00,WSDL version 426,2013-01-25 20:22:00,
2013-01-25 14:27:00,54.0,27.7,29.44,NNE,14,6.4,10.5,36,0.00,,,0.00,WSDL version 426,2013-01-25 20:27:00,
2013-01-25 14:32:00,54.9,28.2,29.44,NE,48,3.9,10.5,35,0.00,,,0.00,WSDL version 426,2013-01-25 20:32:00,
2013-01-25 14:37:00,55.8,28.6,29.44,NE,42,6.5,8.5,35,0.00,,,0.00,WSDL version 426,2013-01-25 20:37:00,
2013-01-25 14:42:00,56.1,28.3,29.44,NE,55,5.4,9.8,34,0.00,,,0.00,WSDL version 426,2013-01-25 20:42:00,
2013-01-25 14:47:00,56.8,28.2,29.44,NE,43,6.9,10.7,33,0.00,,,0.00,WSDL version 426,2013-01-25 20:47:00,
2013-01-25 14:52:00,57.1,27.6,29.44,NNE,20,5.7,10.7,31,0.00,,,0.00,WSDL version 426,2013-01-25 20:52:00,
2013-01-25 14:57:00,57.2,27.2,29.44,NNE,17,5.7,9.2,31,0.00,,,0.00,WSDL version 426,2013-01-25 20:57:00,
2013-01-25 15:02:00,58.0,27.5,29.44,NNE,23,5.1,8.5,31,0.00,,,0.00,WSDL version 426,2013-01-25 21:02:00,
2013-01-25 15:07:00,58.2,26.9,29.44,North,10,5.6,8.5,29,0.00,,,0.00,WSDL version 426,2013-01-25 21:07:00,
2013-01-25 15:12:00,58.2,26.8,29.44,NE,53,5.6,8.5,30,0.00,,,0.00,WSDL version 426,2013-01-25 21:12:00,
2013-01-25 15:17:00,59.0,27.1,29.44,NE,45,5.9,7.6,29,0.00,,,0.00,WSDL version 426,2013-01-25 21:17:00,
2013-01-25 15:22:00,58.0,25.9,29.44,NE,39,5.1,8.7,29,0.00,,,0.00,WSDL version 426,2013-01-25 21:22:00,
2013-01-25 15:27:00,57.5,25.5,29.44,NE,50,2.8,8.7,29,0.00,,,0.00,WSDL version 426,2013-01-25 21:27:00,
2013-01-25 15:32:00,56.9,25.8,29.44,SE,135,1.5,5.8,30,0.00,,,0.00,WSDL version 426,2013-01-25 21:32:00,
2013-01-25 15:37:00,56.7,25.8,29.44,North,357,3.8,6.0,30,0.00,,,0.00,WSDL version 426,2013-01-25 21:37:00,
2013-01-25 15:42:00,55.9,24.9,29.44,NNE,26,2.4,6.0,30,0.00,,,0.00,WSDL version 426,2013-01-25 21:42:00,
2013-01-25 15:47:00,55.0,24.8,29.44,North,6,3.9,6.3,31,0.00,,,0.00,WSDL version 426,2013-01-25 21:47:00,
2013-01-25 15:52:00,53.9,24.0,29.44,NNE,18,3.3,6.3,31,0.00,,,0.00,WSDL version 426,2013-01-25 21:52:00,
2013-01-25 15:57:00,53.0,23.1,29.44,NE,55,2.7,4.3,31,0.00,,,0.00,WSDL version 426,2013-01-25 21:57:00,
2013-01-25 16:02:00,52.6,23.5,29.44,NE,45,1.9,4.7,32,0.00,,,0.00,WSDL version 426,2013-01-25 22:02:00,
2013-01-25 16:07:00,52.4,23.4,29.44,NNE,25,2.7,4.7,32,0.00,,,0.00,WSDL version 426,2013-01-25 22:07:00,
2013-01-25 16:12:00,52.1,23.1,29.44,NE,40,3.4,4.9,32,0.00,,,0.00,WSDL version 426,2013-01-25 22:12:00,
2013-01-25 16:17:00,51.7,23.3,29.44,NNE,23,3.3,4.9,33,0.00,,,0.00,WSDL version 426,2013-01-25 22:17:00,
2013-01-25 16:22:00,51.7,23.6,29.44,NE,45,3.2,6.0,34,0.00,,,0.00,WSDL version 426,2013-01-25 22:22:00,
2013-01-25 16:27:00,51.5,24.1,29.47,NE,40,2.9,6.0,34,0.00,,,0.00,WSDL version 426,2013-01-25 22:27:00,
2013-01-25 16:32:00,51.3,23.9,29.47,NE,45,2.6,4.3,34,0.00,,,0.00,WSDL version 426,2013-01-25 22:32:00,
2013-01-25 16:37:00,51.1,23.7,29.47,NE,43,2.3,3.6,34,0.00,,,0.00,WSDL version 426,2013-01-25 22:37:00,
2013-01-25 16:42:00,50.9,23.5,29.44,East,83,2.3,3.6,34,0.00,,,0.00,WSDL version 426,2013-01-25 22:42:00,
2013-01-25 16:47:00,50.4,23.1,29.44,East,98,1.6,4.3,34,0.00,,,0.00,WSDL version 426,2013-01-25 22:47:00,
2013-01-25 16:52:00,50.1,23.6,29.44,ENE,78,2.4,4.3,35,0.00,,,0.00,WSDL version 426,2013-01-25 22:52:00,
2013-01-25 16:57:00,49.7,23.2,29.44,ESE,118,2.6,3.6,35,0.00,,,0.00,WSDL version 426,2013-01-25 22:57:00,
2013-01-25 17:02:00,49.4,23.5,29.44,SE,125,2.5,3.6,36,0.00,,,0.00,WSDL version 426,2013-01-25 23:02:00,
2013-01-25 17:07:00,49.0,23.3,29.44,SE,132,1.8,3.6,36,0.00,,,0.00,WSDL version 426,2013-01-25 23:07:00,
2013-01-25 17:12:00,48.8,23.1,29.47,SE,135,1.8,3.1,36,0.00,,,0.00,WSDL version 426,2013-01-25 23:12:00,
2013-01-25 17:17:00,48.7,23.6,29.47,SE,135,0.0,2.7,37,0.00,,,0.00,WSDL version 426,2013-01-25 23:17:00,
2013-01-25 17:22:00,48.3,23.2,29.47,SE,135,0.1,2.0,37,0.00,,,0.00,WSDL version 426,2013-01-25 23:22:00,
2013-01-25 17:27:00,48.1,23.1,29.44,SE,135,2.1,2.2,37,0.00,,,0.00,WSDL version 426,2013-01-25 23:27:00,
2013-01-25 17:32:00,47.8,22.8,29.44,SSE,158,1.1,2.2,37,0.00,,,0.00,WSDL version 426,2013-01-25 23:32:00,
2013-01-25 17:37:00,47.5,22.5,29.44,SSE,158,0.6,2.2,37,0.00,,,0.00,WSDL version 426,2013-01-25 23:37:00,
2013-01-25 17:42:00,47.2,22.7,29.44,SSE,158,0.0,2.2,38,0.00,,,0.00,WSDL version 426,2013-01-25 23:42:00,
2013-01-25 17:47:00,46.8,22.5,29.44,SSE,158,0.0,0.0,38,0.00,,,0.00,WSDL version 426,2013-01-25 23:47:00,
2013-01-25 17:52:00,46.4,22.2,29.44,SSE,158,0.5,2.0,38,0.00,,,0.00,WSDL version 426,2013-01-25 23:52:00,
2013-01-25 17:57:00,46.0,21.9,29.44,SSE,158,2.2,2.9,39,0.00,,,0.00,WSDL version 426,2013-01-25 23:57:00,
2013-01-25 18:02:00,45.7,22.1,29.44,SE,146,0.4,2.9,39,0.00,,,0.00,WSDL version 426,2013-01-26 00:02:00,
2013-01-25 18:07:00,45.4,21.9,29.44,ENE,68,0.0,2.2,39,0.00,,,0.00,WSDL version 426,2013-01-26 00:07:00,
2013-01-25 18:12:00,45.3,21.8,29.44,ENE,68,0.0,0.0,39,0.00,,,0.00,WSDL version 426,2013-01-26 00:12:00,
2013-01-25 18:17:00,45.2,21.7,29.44,ESE,108,0.0,1.6,39,0.00,,,0.00,WSDL version 426,2013-01-26 00:17:00,
2013-01-25 18:22:00,45.0,21.6,29.44,ESE,113,0.0,1.6,39,0.00,,,0.00,WSDL version 426,2013-01-26 00:22:00,
2013-01-25 18:27:00,45.0,22.0,29.47,SSE,148,0.0,1.6,40,0.00,,,0.00,WSDL version 426,2013-01-26 00:27:00,
2013-01-25 18:32:00,44.8,22.0,29.47,East,90,0.0,1.6,40,0.00,,,0.00,WSDL version 426,2013-01-26 00:32:00,
2013-01-25 18:37:00,44.7,21.8,29.47,East,90,0.0,0.0,40,0.00,,,0.00,WSDL version 426,2013-01-26 00:37:00,
2013-01-25 18:42:00,44.6,21.8,29.44,ENE,68,0.0,0.0,40,0.00,,,0.00,WSDL version 426,2013-01-26 00:42:00,
2013-01-25 18:47:00,44.4,22.1,29.44,ENE,68,0.0,0.0,41,0.00,,,0.00,WSDL version 426,2013-01-26 00:47:00,
2013-01-25 18:52:00,44.1,21.9,29.44,ENE,68,0.0,0.0,41,0.00,,,0.00,WSDL version 426,2013-01-26 00:52:00,
2013-01-25 18:57:00,43.9,21.7,29.47,South,172,0.0,0.0,41,0.00,,,0.00,WSDL version 426,2013-01-26 00:57:00,
2013-01-25 19:02:00,43.7,22.0,29.47,NW,315,0.0,0.0,42,0.00,,,0.00,WSDL version 426,2013-01-26 01:02:00,
2013-01-25 19:07:00,43.6,22.0,29.47,NW,315,0.0,0.0,42,0.00,,,0.00,WSDL version 426,2013-01-26 01:07:00,
2013-01-25 19:12:00,43.5,22.0,29.47,NW,315,0.0,0.0,42,0.00,,,0.00,WSDL version 426,2013-01-26 01:12:00,
2013-01-25 19:17:00,43.4,22.0,29.47,NW,315,0.0,0.0,42,0.00,,,0.00,WSDL version 426,2013-01-26 01:17:00,
2013-01-25 19:22:00,43.3,22.2,29.47,NW,315,0.0,0.0,43,0.00,,,0.00,WSDL version 426,2013-01-26 01:22:00,
2013-01-25 19:27:00,43.2,22.2,29.47,WNW,301,0.0,0.0,43,0.00,,,0.00,WSDL version 426,2013-01-26 01:27:00,
2013-01-25 19:32:00,43.0,22.4,29.47,North,360,0.0,0.0,44,0.00,,,0.00,WSDL version 426,2013-01-26 01:32:00,
2013-01-25 19:37:00,42.8,22.4,29.47,North,360,0.0,0.0,44,0.00,,,0.00,WSDL version 426,2013-01-26 01:37:00,
2013-01-25 19:42:00,42.8,22.6,29.47,North,360,0.0,0.0,45,0.00,,,0.00,WSDL version 426,2013-01-26 01:42:00,
2013-01-25 19:47:00,42.7,22.9,29.47,North,360,0.0,0.0,46,0.00,,,0.00,WSDL version 426,2013-01-26 01:47:00,
2013-01-25 19:52:00,42.4,23.1,29.47,East,87,0.0,0.9,46,0.00,,,0.00,WSDL version 426,2013-01-26 01:52:00,
2013-01-25 19:57:00,42.2,22.9,29.47,SE,135,0.0,1.1,46,0.00,,,0.00,WSDL version 426,2013-01-26 01:57:00,
2013-01-25 20:02:00,41.8,22.6,29.47,SE,130,0.6,2.0,46,0.00,,,0.00,WSDL version 426,2013-01-26 02:02:00,
2013-01-25 20:07:00,41.6,22.6,29.47,NE,45,2.1,2.7,47,0.00,,,0.00,WSDL version 426,2013-01-26 02:07:00,
2013-01-25 20:12:00,41.6,22.8,29.47,NE,45,0.0,2.7,47,0.00,,,0.00,WSDL version 426,2013-01-26 02:12:00,
2013-01-25 20:17:00,41.5,23.2,29.47,North,3,0.0,2.2,48,0.00,,,0.00,WSDL version 426,2013-01-26 02:17:00,
2013-01-25 20:22:00,41.5,23.3,29.47,NE,45,0.0,0.9,48,0.00,,,0.00,WSDL version 426,2013-01-26 02:22:00,
2013-01-25 20:27:00,41.3,23.1,29.47,NE,45,0.0,0.0,48,0.00,,,0.00,WSDL version 426,2013-01-26 02:27:00,
2013-01-25 20:32:00,41.2,23.0,29.47,NE,45,0.0,0.0,48,0.00,,,0.00,WSDL version 426,2013-01-26 02:32:00,
2013-01-25 20:37:00,40.9,23.0,29.47,NE,50,0.0,0.0,49,0.00,,,0.00,WSDL version 426,2013-01-26 02:37:00,
2013-01-25 20:42:00,40.6,23.0,29.47,SE,143,0.0,0.0,49,0.00,,,0.00,WSDL version 426,2013-01-26 02:42:00,
2013-01-25 20:47:00,40.2,22.5,29.47,SSE,158,0.0,0.9,49,0.00,,,0.00,WSDL version 426,2013-01-26 02:47:00,
2013-01-25 20:52:00,39.7,22.1,29.47,SSE,158,0.0,1.1,49,0.00,,,0.00,WSDL version 426,2013-01-26 02:52:00,
2013-01-25 20:57:00,39.7,22.5,29.47,SE,135,0.0,1.1,50,0.00,,,0.00,WSDL version 426,2013-01-26 02:57:00,
2013-01-25 21:02:00,39.7,22.6,29.47,NNW,338,0.1,1.3,50,0.00,,,0.00,WSDL version 426,2013-01-26 03:02:00,
2013-01-25 21:07:00,39.7,22.6,29.47,NNW,338,0.0,1.3,50,0.00,,,0.00,WSDL version 426,2013-01-26 03:07:00,
2013-01-25 21:12:00,39.7,23.1,29.47,NNW,338,0.0,0.9,51,0.00,,,0.00,WSDL version 426,2013-01-26 03:12:00,
2013-01-25 21:17:00,39.7,23.1,29.47,NE,45,0.1,2.0,51,0.00,,,0.00,WSDL version 426,2013-01-26 03:17:00,
2013-01-25 21:22:00,39.5,22.9,29.47,NE,45,0.0,2.0,51,0.00,,,0.00,WSDL version 426,2013-01-26 03:22:00,
2013-01-25 21:27:00,39.4,22.8,29.47,NE,45,0.0,1.6,51,0.00,,,0.00,WSDL version 426,2013-01-26 03:27:00,
2013-01-25 21:32:00,39.2,22.8,29.47,NE,45,0.0,0.0,52,0.00,,,0.00,WSDL version 426,2013-01-26 03:32:00,
2013-01-25 21:37:00,39.2,22.8,29.47,NE,45,0.0,0.0,52,0.00,,,0.00,WSDL version 426,2013-01-26 03:37:00,
2013-01-25 21:42:00,39.0,23.0,29.47,NE,45,0.0,0.0,52,0.00,,,0.00,WSDL version 426,2013-01-26 03:42:00,
2013-01-25 21:47:00,39.0,23.3,29.47,NE,45,0.0,0.9,53,0.00,,,0.00,WSDL version 426,2013-01-26 03:47:00,
2013-01-25 21:52:00,39.2,23.1,29.47,NE,45,0.0,0.9,52,0.00,,,0.00,WSDL version 426,2013-01-26 03:52:00,
2013-01-25 21:57:00,39.4,23.2,29.47,NE,45,0.0,0.0,52,0.00,,,0.00,WSDL version 426,2013-01-26 03:57:00,
2013-01-25 22:02:00,39.2,23.9,29.47,SSW,203,1.3,2.0,55,0.00,,,0.00,WSDL version 426,2013-01-26 04:02:00,
2013-01-25 22:07:00,38.9,23.8,29.47,SSW,203,0.0,2.0,54,0.00,,,0.00,WSDL version 426,2013-01-26 04:07:00,
2013-01-25 22:12:00,38.8,23.6,29.47,SSW,203,0.0,0.0,54,0.00,,,0.00,WSDL version 426,2013-01-26 04:12:00,
2013-01-25 22:17:00,38.8,23.6,29.47,SSW,203,0.0,0.0,54,0.00,,,0.00,WSDL version 426,2013-01-26 04:17:00,
2013-01-25 22:22:00,38.8,23.6,29.47,SSW,203,0.0,0.0,54,0.00,,,0.00,WSDL version 426,2013-01-26 04:22:00,
2013-01-25 22:27:00,38.9,23.7,29.47,SSW,203,0.0,0.0,54,0.00,,,0.00,WSDL version 426,2013-01-26 04:27:00,
2013-01-25 22:32:00,38.8,23.6,29.47,SSW,203,0.0,0.0,54,0.00,,,0.00,WSDL version 426,2013-01-26 04:32:00,
2013-01-25 22:37:00,38.7,23.6,29.47,SSW,203,0.5,1.1,54,0.00,,,0.00,WSDL version 426,2013-01-26 04:37:00,
2013-01-25 22:42:00,38.4,23.5,29.47,SSW,203,1.2,2.2,55,0.00,,,0.00,WSDL version 426,2013-01-26 04:42:00,
2013-01-25 22:47:00,38.2,23.5,29.47,SSW,203,0.0,2.2,55,0.00,,,0.00,WSDL version 426,2013-01-26 04:47:00,
2013-01-25 22:52:00,38.1,23.6,29.47,SSW,203,0.0,1.6,56,0.00,,,0.00,WSDL version 426,2013-01-26 04:52:00,
2013-01-25 22:57:00,38.1,23.8,29.47,SSW,203,0.0,0.0,56,0.00,,,0.00,WSDL version 426,2013-01-26 04:57:00,
2013-01-25 23:00:00,38.0,23.7,29.47,SSW,203,0.0,0.0,56,0.00,,,0.00,WSDL version 426,2013-01-26 05:00:00,
2013-01-25 23:02:00,37.9,23.5,29.47,SSW,203,0.0,0.0,55,0.00,,,0.00,WSDL version 426,2013-01-26 05:02:00,
2013-01-25 23:03:00,37.9,23.4,29.47,SSW,203,0.0,0.0,56,0.00,,,0.00,WSDL version 426,2013-01-26 05:03:00,
2013-01-25 23:08:00,37.6,23.3,29.47,SSW,203,0.0,0.0,56,0.00,,,0.00,WSDL version 426,2013-01-26 05:08:00,
2013-01-25 23:13:00,37.4,23.1,29.50,SSW,203,0.0,0.0,56,0.00,,,0.00,WSDL version 426,2013-01-26 05:13:00,
2013-01-25 23:18:00,37.4,23.1,29.50,SSW,203,0.0,0.0,56,0.00,,,0.00,WSDL version 426,2013-01-26 05:18:00,
2013-01-25 23:23:00,37.4,23.1,29.50,SSW,203,0.0,0.0,56,0.00,,,0.00,WSDL version 426,2013-01-26 05:23:00,
2013-01-25 23:29:00,37.3,23.3,29.50,SSW,203,0.0,0.0,57,0.00,,,0.00,WSDL version 426,2013-01-26 05:29:00,
2013-01-25 23:34:00,37.2,23.4,29.50,WNW,298,0.0,0.0,57,0.00,,,0.00,WSDL version 426,2013-01-26 05:34:00,
2013-01-25 23:39:00,37.1,23.6,29.50,NNW,338,0.6,2.7,57,0.00,,,0.00,WSDL version 426,2013-01-26 05:39:00,
2013-01-25 23:44:00,37.3,23.5,29.47,NNW,338,0.0,2.7,57,0.00,,,0.00,WSDL version 426,2013-01-26 05:44:00,
2013-01-25 23:49:00,37.3,23.6,29.47,NNW,338,0.0,0.0,58,0.00,,,0.00,WSDL version 426,2013-01-26 05:49:00,
2013-01-25 23:54:00,37.2,23.8,29.47,NNW,338,0.0,0.0,58,0.00,,,0.00,WSDL version 426,2013-01-26 05:54:00,
2013-01-25 23:59:00,37.2,23.8,29.47,NNW,338,0.0,0.0,58,0.00,,,0.00,WSDL version 426,2013-01-26 05:59:00,